Theta_e
287 287 287 289 288 287 287 287 287 286 287 285 283 284 286 286 282 280 285 287 285 287 290 291 292 293 293 293 294 294 294 293 291 287 287 287 289 290 287 288 290 291 291 291 290 289 288 287 286 285 285 284 284 284 284 283 283 283 283 283 282 282 282 282 282 281 280 279 279 278 277 276 276 275 275 275 275 274 274 274 274 274 274 273 272 272 272
285 286 286 288 287 286 287 286 287 287 286 286 286 285 286 286 285 286 287 287 286 289 290 292 293 294 294 295 295 294 293 293 293 290 287 289 291 292 288 288 290 291 292 292 292 290 288 287 286 286 285 284 284 284 283 283 282 283 282 282 282 282 282 282 281 281 280 279 278 277 276 276 275 275 275 274 274 274 274 274 273 273 272 272 272 271 270
283 286 287 287 286 286 284 286 287 287 287 286 286 286 287 287 285 286 286 285 285 290 293 292 294 295 295 294 293 293 294 294 294 292 291 291 291 292 290 287 289 291 292 293 292 290 288 287 287 287 286 285 284 284 283 282 282 282 282 282 282 282 281 281 280 279 278 278 277 276 276 276 275 275 274 274 273 273 273 272 272 271 271 271 270 270 270
281 285 285 285 286 285 285 285 286 286 285 283 285 285 287 285 284 285 285 283 283 289 292 293 293 293 292 292 292 293 294 294 294 293 292 292 291 291 291 290 289 290 291 291 290 290 290 289 288 287 286 285 284 283 283 283 283 282 282 282 282 281 281 280 279 278 278 277 276 276 275 275 274 274 274 273 273 272 271 270 270 270 270 270 270 271 271
280 286 286 285 285 283 280 282 285 287 287 288 288 289 289 288 288 284 282 283 289 291 292 290 291 291 291 292 292 292 293 293 293 293 292 292 292 292 292 293 292 292 291 291 291 291 291 291 290 288 287 286 284 284 283 283 282 281 281 282 281 281 280 279 278 278 277 276 276 275 275 275 274 273 273 273 272 271 270 270 269 270 271 270 270 270 270
281 285 285 285 281 274 276 287 291 289 287 287 286 286 287 289 289 287 289 290 292 292 291 290 290 291 292 293 294 294 293 293 293 293 293 293 292 292 293 293 292 293 291 291 291 291 292 292 292 292 289 287 287 286 284 282 281 281 281 281 280 280 279 279 278 278 277 276 276 275 275 274 274 273 272 272 271 271 270 270 270 270 270 269 270 270 270
279 284 284 279 273 276 286 291 292 292 291 290 289 289 290 290 290 290 289 290 290 291 292 292 293 293 293 294 294 293 293 292 291 292 293 293 293 294 293 291 291 290 289 290 290 290 290 290 290 290 287 286 286 283 282 282 281 281 281 280 280 279 279 279 278 277 277 276 276 275 275 274 273 272 272 271 270 270 270 270 270 269 269 269 269 269 270
283 280 279 273 274 285 285 289 290 292 292 290 289 286 289 290 290 290 289 290 291 292 292 292 293 293 293 294 293 293 294 294 293 292 293 294 294 293 293 293 293 292 289 289 290 291 291 290 289 288 288 287 285 284 283 282 281 281 281 280 280 279 279 278 278 278 277 276 276 275 274 273 272 272 272 271 270 269 269 269 269 269 269 269 269 269 270
278 279 280 279 285 284 282 284 285 287 284 285 284 280 284 289 287 288 288 289 290 291 292 292 292 292 291 289 290 291 290 290 290 290 290 291 292 292 293 293 292 291 290 290 291 291 291 290 289 288 287 285 285 283 282 282 281 281 280 280 279 279 279 278 278 277 277 276 275 274 273 272 272 272 271 270 269 269 268 268 268 268 268 269 269 269 269
285 279 278 278 278 275 281 289 288 292 292 291 290 286 283 281 280 286 285 284 286 285 286 287 287 287 285 285 286 286 288 288 288 289 289 289 289 289 290 290 291 291 290 290 289 290 290 289 288 287 284 284 284 282 282 281 280 280 280 280 280 279 279 278 278 277 277 276 275 273 272 272 272 272 270 270 269 269 268 267 267 267 268 268 269 269 269
284 281 277 277 275 279 284 283 288 290 292 292 290 284 280 281 279 283 286 285 286 285 285 286 287 285 282 282 284 287 288 288 288 287 288 288 289 289 289 287 286 287 288 288 288 287 286 287 287 282 283 284 283 282 282 281 281 280 280 280 280 279 279 278 278 277 277 276 275 273 272 272 272 270 269 269 269 268 268 268 267 267 268 267 268 268 268
281 280 277 275 280 277 278 282 284 286 287 290 284 276 275 277 280 282 283 285 285 285 284 286 285 283 280 282 285 288 288 288 288 286 287 288 288 288 288 288 285 286 286 285 286 284 283 283 281 280 281 283 283 283 281 280 280 280 280 281 281 280 279 278 277 277 277 276 274 273 273 272 271 270 270 268 267 268 268 267 267 267 267 267 267 267 268
280 281 278 281 281 283 280 282 284 285 287 285 278 272 273 278 281 282 284 285 285 285 285 286 283 285 286 287 289 289 288 288 288 288 287 287 286 287 286 286 286 286 285 283 282 282 282 280 278 278 278 280 281 281 280 279 279 281 281 280 280 279 278 277 276 276 276 275 274 273 272 271 270 269 268 268 267 267 267 266 266 266 266 266 266 266 267
276 278 275 277 281 281 282 283 284 286 283 278 273 277 281 281 281 282 285 285 285 285 285 285 285 286 288 288 288 288 288 287 288 288 288 288 289 289 287 286 285 285 285 284 282 281 278 278 277 277 277 278 278 278 279 279 280 277 278 278 278 277 276 276 275 275 275 274 273 272 271 270 269 268 267 267 267 266 266 266 265 265 265 265 265 266 266
274 273 273 274 272 280 283 282 280 283 273 274 281 281 281 282 283 284 285 285 285 286 284 285 285 285 286 287 287 287 287 287 287 288 288 288 288 288 288 288 287 283 284 285 282 278 276 276 278 280 279 278 278 276 277 278 276 275 275 276 276 275 275 274 274 274 273 272 272 271 270 269 268 267 266 265 266 266 266 265 265 264 264 265 265 265 265
271 272 271 272 278 278 282 281 275 280 279 282 282 281 280 283 285 284 284 284 285 284 284 284 284 285 285 285 286 286 287 288 288 288 288 288 288 288 288 287 286 283 285 284 282 279 276 276 277 281 282 282 280 278 279 276 275 274 275 275 274 274 273 273 273 272 271 271 270 270 270 269 268 267 265 265 265 265 265 265 264 263 264 264 265 264 265
274 270 274 278 281 281 281 281 280 281 282 282 282 282 283 283 284 285 283 283 284 284 284 284 284 283 284 285 286 285 286 287 287 287 288 288 288 288 288 288 287 285 286 286 286 282 278 277 277 279 281 283 281 280 281 278 277 275 274 274 273 273 273 272 272 271 270 269 269 268 269 269 268 266 265 264 264 264 265 265 264 263 264 264 265 265 265
279 279 279 280 280 280 279 279 281 281 281 283 284 284 282 283 284 284 283 283 283 283 284 283 282 283 283 284 284 285 285 286 286 287 287 288 288 288 288 288 288 288 287 285 282 283 282 278 279 279 280 282 282 283 280 277 277 275 274 273 273 272 272 271 270 270 269 268 267 268 268 268 268 267 265 264 264 264 264 264 264 264 264 265 265 265 265
272 266 277 276 276 278 278 279 280 281 281 281 282 280 280 281 282 282 282 282 282 282 282 282 281 281 281 281 282 282 283 283 284 285 285 286 286 287 287 288 288 288 287 286 285 284 284 282 279 279 280 281 283 283 278 278 276 275 274 273 272 271 271 270 269 269 269 267 267 267 267 267 267 266 265 265 265 264 264 264 265 265 265 265 265 265 265
270 269 274 275 277 277 278 278 277 278 278 278 280 279 279 279 280 280 280 281 280 281 280 280 280 279 280 280 280 281 281 282 283 283 283 284 284 285 286 286 287 286 286 285 285 285 285 285 282 280 280 280 281 281 278 277 276 274 273 273 272 271 270 269 268 268 268 266 266 266 266 266 265 265 265 265 265 265 265 265 265 265 265 265 265 265 265
272 274 274 275 274 274 275 276 275 276 276 276 277 278 277 277 277 277 278 279 278 278 278 279 278 278 278 279 279 280 281 281 281 282 282 283 283 284 284 285 285 286 286 286 286 285 286 286 285 282 281 281 281 280 279 276 275 274 273 272 272 271 270 268 267 267 268 266 266 266 265 265 266 266 265 265 266 266 267 268 268 267 266 266 266 267 267
267 268 271 273 269 269 274 275 274 275 276 276 275 275 275 275 275 275 275 275 276 276 276 276 276 275 276 277 277 277 278 279 280 280 281 281 282 283 284 284 284 285 285 285 285 285 286 287 286 284 283 282 281 280 278 276 275 274 273 272 271 270 269 268 267 267 266 266 266 265 265 264 264 265 268 270 268 267 267 270 272 272 271 267 267 267 267
268 273 274 272 273 272 273 274 274 274 274 274 271 271 272 272 273 272 271 271 272 272 273 274 273 272 273 273 274 275 276 276 277 277 278 278 278 279 281 281 282 283 284 284 284 284 285 286 286 285 284 283 281 279 277 275 274 274 273 271 271 269 268 267 266 266 266 265 265 265 265 264 264 264 265 268 271 271 271 272 272 273 273 273 273 272 268
275 276 273 271 270 271 274 273 272 273 273 271 270 271 271 271 271 270 270 270 270 270 270 270 271 270 271 272 273 271 272 273 273 274 275 275 276 276 277 277 279 280 282 283 284 284 285 285 285 285 285 283 281 278 276 275 274 274 273 272 270 269 268 267 266 266 266 265 265 265 265 264 264 265 265 265 267 271 273 274 274 274 274 274 274 273 272
274 273 269 270 270 270 271 272 272 272 272 270 269 269 270 270 270 269 269 269 269 268 267 267 268 270 270 270 269 269 269 269 270 271 272 272 272 272 273 275 275 277 278 278 278 279 280 281 283 284 283 283 280 277 275 274 274 273 273 272 271 270 268 267 266 265 265 265 265 265 264 264 264 265 265 266 265 267 271 275 275 275 275 275 274 274 273
270 268 268 268 268 269 271 271 271 271 270 269 268 268 269 270 269 268 268 267 267 267 266 267 267 268 268 267 266 266 266 266 267 268 267 267 268 269 270 271 273 275 275 275 275 275 276 277 279 280 282 282 280 276 274 273 273 273 273 272 272 270 268 267 266 265 264 264 264 265 265 265 265 266 266 266 267 268 268 269 271 273 275 275 274 274 274
267 267 267 269 270 272 270 268 268 269 267 267 267 267 268 267 268 267 266 266 265 266 267 267 267 266 266 265 265 265 264 264 264 264 264 265 266 268 270 271 271 271 272 272 273 274 275 276 277 278 280 282 281 276 274 273 273 272 272 272 271 268 266 266 266 265 265 265 265 265 265 265 265 266 266 267 268 268 268 268 267 267 268 271 274 274 272
266 265 266 265 266 267 267 267 266 266 266 266 267 266 266 266 264 263 262 263 264 264 265 264 264 263 263 263 263 262 262 262 262 263 264 264 265 266 267 267 267 268 269 270 271 273 274 275 276 277 279 282 279 274 273 272 272 272 272 272 271 269 267 266 266 266 265 265 266 266 265 266 266 267 267 267 267 267 268 267 267 267 267 268 270 273 274
264 264 264 264 264 264 264 264 264 264 265 266 265 265 264 262 261 261 262 263 263 263 262 262 263 262 262 261 261 260 260 260 261 261 261 262 263 263 264 265 265 266 267 268 269 271 272 274 276 277 279 280 275 273 273 272 272 272 272 271 270 268 267 267 266 266 265 265 266 266 267 266 266 266 266 266 266 267 266 266 265 265 264 264 266 266 268
263 264 262 262 263 263 262 262 263 264 263 263 263 263 263 261 260 261 261 262 262 261 261 262 261 260 261 259 259 259 259 259 260 260 261 261 261 262 263 264 265 266 266 267 269 272 274 275 277 277 278 279 273 272 272 272 272 272 272 271 270 269 268 267 267 266 265 265 266 267 266 266 266 266 266 266 265 265 264 263 263 262 262 263 265 263 263
261 261 260 261 260 261 262 261 261 261 262 262 262 261 261 261 260 260 260 260 260 260 260 260 259 259 259 258 259 259 259 259 259 259 259 260 261 262 263 264 264 265 266 268 269 271 273 274 276 277 280 279 273 272 272 272 272 272 271 271 270 269 268 268 268 266 265 265 266 265 265 265 265 265 264 264 264 263 263 262 262 262 262 262 261 261 260
258 258 257 260 261 259 259 259 260 260 260 260 259 258 259 259 258 258 258 258 258 259 258 258 257 258 258 258 258 258 258 258 258 258 259 260 261 263 265 266 266 267 267 269 271 273 274 274 274 276 278 276 273 271 271 271 271 271 270 269 269 267 267 268 267 266 265 265 265 264 264 264 264 264 263 263 263 262 262 261 261 261 261 260 259 259 259
256 256 259 258 257 257 258 259 258 258 258 258 258 259 259 259 259 258 258 258 258 258 257 257 257 257 258 258 257 257 257 257 257 258 259 261 262 262 263 264 264 265 267 268 269 271 272 272 274 276 276 275 271 271 271 271 271 271 271 270 268 267 266 268 267 266 265 264 264 264 264 263 263 263 262 262 262 261 261 260 260 259 259 259 258 258 258
256 255 257 257 257 256 256 256 257 257 258 258 258 258 258 258 258 257 257 257 257 256 256 257 257 257 257 257 257 257 257 257 256 257 259 260 260 261 262 263 264 265 267 269 269 269 269 269 270 272 273 273 272 270 270 271 271 271 270 268 267 266 266 266 266 265 264 263 263 262 262 262 262 262 261 261 261 261 260 259 259 258 258 257 257 257 261
258 258 258 257 257 258 258 257 256 256 256 256 256 256 257 257 256 256 257 256 256 256 257 257 257 257 257 256 256 256 256 256 257 258 258 259 259 260 262 263 265 265 265 264 265 266 267 268 270 271 271 271 270 270 270 270 270 270 268 267 266 266 266 265 264 263 263 262 262 262 262 261 261 260 260 260 260 259 259 258 258 257 257 256 256 254 259
256 255 255 255 255 255 256 256 256 256 255 255 255 255 255 255 255 255 255 255 257 257 257 257 257 256 256 256 256 256 256 257 257 258 259 259 260 261 262 262 261 261 261 262 264 266 267 267 265 264 266 268 268 268 269 269 269 268 267 266 265 265 264 264 263 263 262 262 262 261 261 260 260 259 259 259 259 259 258 257 257 257 257 256 256 255 256
254 254 254 255 255 255 255 255 255 255 255 254 254 254 254 254 255 255 256 256 256 256 256 256 256 255 256 256 257 257 257 258 258 258 258 259 261 261 260 259 259 260 262 261 264 261 261 263 263 262 264 266 266 267 267 265 267 266 266 265 265 263 263 262 262 262 261 262 261 260 259 259 259 258 258 258 258 258 257 256 256 256 256 255 255 255 253
254 255 254 254 254 254 254 254 255 254 254 254 254 254 254 254 254 255 255 256 256 256 257 257 256 256 257 257 257 256 257 257 257 258 259 259 259 257 257 258 259 259 257 258 260 261 261 261 261 263 264 264 265 265 265 264 264 265 265 264 263 263 262 262 261 261 261 260 259 259 259 258 257 257 257 257 257 257 256 256 255 255 254 254 254 253 252
254 254 254 254 254 254 253 254 254 254 254 253 253 253 254 255 255 255 255 255 256 257 257 257 257 256 256 256 255 256 256 257 258 259 258 256 256 256 257 259 258 257 257 258 259 260 261 261 262 263 263 264 264 264 263 262 263 264 263 263 262 262 261 261 260 259 258 258 258 258 257 257 257 256 256 256 256 255 255 255 254 254 253 253 252 252 251
253 253 253 253 253 253 253 253 253 253 254 254 253 253 254 254 255 255 255 255 256 257 257 257 256 255 255 255 255 255 257 257 258 257 255 255 255 256 257 258 258 257 258 259 259 260 261 261 262 263 263 263 263 263 262 262 262 263 263 262 262 261 261 260 259 258 258 258 257 256 257 256 256 256 255 255 254 254 254 253 253 253 252 252 252 251 250
253 253 253 253 253 253 253 253 252 253 253 253 253 254 255 255 256 256 255 256 257 257 257 257 256 255 255 256 256 257 257 258 257 256 255 254 254 254 254 254 257 257 258 259 260 260 261 261 261 261 262 262 262 262 262 261 263 262 262 262 261 260 259 259 258 258 257 257 257 257 256 256 255 255 254 254 254 253 253 253 253 252 251 251 251 251 250
252 253 253 253 253 252 252 252 253 252 252 253 254 255 256 257 257 256 256 257 257 257 257 257 257 257 256 256 257 257 256 256 255 255 255 254 253 253 253 254 257 257 258 259 259 259 260 260 260 260 261 261 261 260 261 262 262 261 261 260 259 259 258 258 258 258 258 257 256 255 255 255 254 254 254 253 253 253 253 253 253 252 252 251 251 250 250
252 252 252 252 252 252 252 252 252 252 253 254 255 256 257 257 257 257 257 257 257 257 256 256 257 257 256 255 255 255 254 254 253 253 254 255 255 255 254 255 257 257 258 258 258 258 258 259 259 259 259 260 260 259 259 260 260 259 259 258 258 258 258 258 257 256 256 255 255 255 255 254 254 253 253 253 253 253 253 253 253 252 252 252 251 249 249
252 252 252 252 251 252 252 252 253 253 253 255 256 257 257 257 257 257 257 256 256 256 256 256 256 255 255 254 254 253 252 252 252 253 253 254 254 255 256 256 256 257 257 257 257 257 257 258 258 258 258 258 258 258 259 259 259 258 258 257 257 257 257 256 256 256 256 255 255 255 255 254 254 254 254 253 253 253 253 253 252 252 252 252 251 250 249
252 252 251 251 251 251 252 252 253 253 255 256 256 256 256 256 256 257 256 256 256 257 257 257 255 254 254 253 253 253 253 253 253 253 252 252 252 252 255 256 256 256 257 257 257 257 257 258 258 258 258 258 258 258 259 258 258 258 258 257 257 257 257 256 256 256 255 255 255 255 255 255 255 254 254 254 253 253 252 252 252 252 252 251 250 249 249
251 251 251 252 251 251 252 253 254 255 256 256 255 256 256 256 256 256 257 256 256 256 257 255 254 254 254 253 253 254 254 254 254 254 254 253 252 253 255 256 256 256 257 257 257 257 257 257 258 258 258 258 258 258 258 258 258 257 257 256 256 256 255 255 255 255 255 255 255 255 255 255 255 254 254 254 253 253 252 251 251 251 251 250 250 249 248
251 251 251 251 251 252 253 254 255 255 255 254 254 254 255 256 256 256 256 257 256 256 255 254 254 254 254 254 253 252 253 253 253 254 254 254 255 255 256 256 256 256 256 256 256 257 257 257 257 257 257 257 257 257 257 257 257 256 256 256 255 255 255 255 254 254 254 254 254 253 253 253 253 253 252 251 252 251 251 251 251 250 249 248 248 247 247
250 250 251 251 252 253 254 255 255 254 254 253 254 254 255 256 256 256 257 256 256 255 254 254 254 254 254 254 254 254 254 253 251 251 254 254 254 255 255 255 256 256 256 256 256 256 257 257 257 257 257 257 257 257 256 256 256 256 255 255 254 254 254 254 254 253 253 253 253 252 252 252 252 252 252 251 251 251 251 250 250 249 248 248 248 248 247
250 250 251 252 253 254 254 254 254 254 254 255 255 255 255 255 255 255 255 255 255 254 254 253 253 253 254 254 254 254 254 254 253 251 253 254 254 255 255 256 256 256 255 255 255 256 256 256 256 256 256 256 256 255 255 255 255 254 254 254 253 253 253 253 253 253 253 252 252 252 252 251 251 251 250 250 249 249 249 249 249 248 248 247 246 246 245
251 251 252 252 253 254 254 254 253 254 254 255 254 255 255 255 254 254 254 254 254 254 253 253 253 254 254 254 254 254 254 254 254 255 255 254 254 255 255 255 255 255 255 255 255 255 255 255 255 255 255 255 255 255 254 254 254 254 253 253 253 252 252 252 252 252 252 252 251 251 251 250 250 249 249 249 248 248 248 248 247 247 247 247 246 246 245
251 251 252 253 254 255 255 255 254 255 255 255 255 255 255 254 254 254 254 254 254 253 253 253 254 254 254 254 254 254 254 254 255 255 254 254 255 255 255 255 255 255 254 254 254 254 254 254 254 254 254 254 254 253 253 253 253 252 252 252 252 252 252 252 252 252 251 251 251 250 250 249 249 249 248 248 248 248 247 247 247 247 247 246 245 245 244
252 252 253 255 255 255 255 255 255 255 255 255 255 255 254 254 254 254 254 255 254 253 253 253 252 254 255 254 254 254 254 254 254 255 255 255 255 254 254 254 254 254 254 253 253 254 254 254 254 253 253 253 253 252 252 252 252 252 252 252 251 251 251 251 251 250 250 250 250 249 249 249 249 249 248 248 247 247 247 246 246 245 245 244 243 243 242
Wind_Speed
22 24 23 23 22 20 21 21 21 21 21 17 16 18 18 16 16 22 18 19 21 21 21 23 25 26 27 24 20 21 20 16 12 8 9 10 12 12 6 7 11 12 12 13 12 12 12 11 12 13 12 12 12 11 11 10 11 14 13 13 13 14 14 15 16 15 12 10 11 11 12 12 13 13 13 12 11 11 10 10 9 10 9 10 10 9 8
21 22 23 23 25 23 22 22 23 24 23 24 22 23 23 25 26 24 21 21 25 19 17 19 24 24 21 19 19 20 20 24 25 14 9 12 15 16 9 10 11 12 14 13 13 12 11 12 14 13 13 13 14 15 14 12 12 12 11 14 15 14 16 16 13 12 12 12 12 12 13 14 14 13 12 12 11 11 10 10 9 9 9 8 9 10 10
18 19 22 22 25 25 27 25 25 25 25 24 25 24 23 23 23 24 28 28 26 18 20 23 24 22 19 17 20 24 27 29 29 21 15 16 15 15 12 9 13 14 15 14 13 11 12 14 16 16 15 15 13 13 10 10 13 12 13 13 13 15 16 13 12 12 12 13 13 14 14 12 11 12 12 11 11 11 10 9 9 9 9 10 9 9 10
14 14 21 23 24 25 28 27 26 25 25 25 24 21 22 21 25 25 23 18 18 19 24 25 23 23 21 21 24 25 26 29 29 21 19 16 13 14 15 13 13 14 15 14 12 13 16 17 16 14 13 13 11 13 12 13 13 11 12 13 14 14 13 11 12 14 13 13 13 12 12 13 13 12 12 12 12 11 10 10 9 8 10 10 9 8 6
18 15 20 21 22 21 20 22 23 30 30 28 23 22 22 22 22 21 19 22 21 25 19 19 18 20 22 24 24 25 28 27 22 20 20 16 16 15 16 18 17 15 15 14 15 16 15 15 14 15 15 12 13 14 13 15 10 12 14 14 13 12 11 13 13 13 12 14 14 13 14 14 13 13 14 13 13 12 13 11 10 11 10 9 8 7 7
13 13 19 14 15 19 18 15 29 29 31 29 30 27 27 28 22 20 22 25 21 19 16 19 19 22 24 24 23 21 18 15 16 17 18 18 16 15 16 15 14 14 11 10 12 14 16 16 15 16 13 14 16 14 12 8 13 13 13 12 13 13 12 13 14 14 13 14 15 14 13 14 14 14 15 15 14 12 12 10 10 10 10 10 9 9 9
8 6 9 12 21 18 5 12 14 23 28 28 30 29 28 28 27 28 27 26 24 24 20 20 21 22 22 21 21 18 14 11 11 17 21 22 18 18 13 12 12 11 10 11 12 12 12 14 14 11 9 11 10 6 9 12 12 13 13 13 12 13 13 14 13 13 14 15 15 14 14 15 15 15 16 13 14 13 10 11 13 12 10 10 10 11 10
7 6 7 16 13 3 3 6 15 17 21 23 24 26 23 24 24 24 24 25 25 22 22 22 21 22 23 19 14 14 17 15 15 16 18 21 22 19 15 15 15 13 11 12 13 15 14 11 10 9 12 11 9 11 10 13 12 13 13 13 13 11 13 14 15 15 15 15 15 15 15 15 16 16 16 16 16 12 13 11 10 10 9 8 11 12 11
17 13 16 23 15 17 5 2 6 12 18 15 18 18 19 13 13 14 17 20 21 20 19 18 18 16 14 12 12 7 13 15 14 12 13 14 17 19 18 16 15 13 11 12 14 12 10 9 9 10 10 8 10 8 10 10 12 12 12 13 14 15 15 15 15 15 16 16 16 16 16 16 17 17 16 15 13 12 13 13 13 12 13 10 8 9 9
14 20 18 17 14 19 16 16 9 15 18 18 17 15 13 16 18 16 15 16 11 13 16 19 19 10 5 9 6 10 16 13 14 13 11 12 13 14 15 15 15 12 11 10 10 9 11 10 10 8 6 9 10 10 10 9 11 11 13 15 15 15 16 15 16 15 15 16 17 16 16 18 18 15 13 12 14 13 15 14 13 12 10 8 7 7 11
14 20 19 17 17 10 10 13 14 12 12 8 12 8 12 10 16 17 15 16 11 10 14 15 14 13 9 7 9 11 11 14 11 12 13 11 11 12 13 12 13 14 13 10 9 7 7 11 9 4 5 8 9 10 10 12 12 12 15 15 14 16 17 15 14 14 14 15 16 17 18 17 16 17 16 15 12 11 11 11 12 11 11 12 10 7 7
11 12 12 10 2 2 11 11 14 15 14 10 1 13 5 12 16 16 16 12 10 10 13 10 9 9 10 11 11 11 12 11 10 6 11 14 14 13 14 14 11 10 10 12 12 10 8 6 5 0 2 6 8 10 10 9 13 15 16 18 17 11 9 11 12 12 13 15 15 17 17 15 14 14 12 12 13 13 11 10 11 10 11 11 11 7 8
17 20 17 11 8 4 9 12 19 19 15 2 7 10 8 17 16 17 14 7 9 10 14 8 9 9 5 9 12 12 10 13 15 12 8 8 7 9 10 11 11 11 10 7 6 6 8 7 4 3 1 0 4 5 8 9 14 18 13 7 8 10 10 10 11 13 12 15 16 14 13 14 12 10 10 12 12 11 11 9 9 10 11 11 11 9 7
10 10 14 13 6 3 12 17 14 13 11 5 3 11 9 7 16 17 8 10 13 12 8 7 7 9 11 9 10 12 13 12 12 12 11 11 13 11 7 8 8 9 10 9 8 6 5 5 4 3 2 1 2 4 3 10 7 2 4 5 6 8 11 12 11 12 13 11 12 12 12 12 14 12 9 9 11 11 9 10 12 12 11 10 9 7 7
11 10 11 10 10 1 18 16 15 9 6 9 10 11 10 10 11 11 8 11 10 11 13 12 10 13 13 12 12 13 14 14 14 16 15 15 14 14 14 15 12 8 10 11 8 4 1 0 2 3 3 3 4 4 7 4 1 2 3 4 6 7 8 10 11 12 11 13 13 11 13 14 15 14 12 12 11 10 11 11 12 12 11 10 7 8 7
7 7 7 3 6 15 12 9 5 8 4 8 9 6 11 9 4 7 11 9 8 11 12 13 16 14 14 15 13 15 15 15 15 14 13 13 13 13 11 7 9 8 9 8 9 5 3 2 4 5 7 6 5 6 11 5 6 7 8 6 7 8 8 9 9 10 10 11 11 11 13 13 13 14 14 13 12 10 10 11 11 10 8 8 7 8 9
4 5 10 13 15 13 8 2 3 11 11 5 5 6 6 9 8 4 6 10 11 10 11 14 13 16 14 14 15 15 16 16 15 16 16 15 15 14 13 14 11 8 10 12 11 7 5 4 4 6 6 9 9 10 8 6 6 6 7 9 9 10 11 11 11 10 10 11 11 11 12 14 15 13 14 14 13 10 11 10 11 11 10 7 6 7 7
11 13 9 14 12 12 13 14 9 9 5 4 6 6 7 7 8 8 8 9 12 11 10 12 14 12 14 18 17 14 14 14 15 13 13 14 12 11 10 10 11 11 11 9 8 10 10 6 6 5 7 8 10 11 6 9 9 10 10 11 10 10 9 9 10 11 13 11 11 12 14 12 13 13 16 14 13 12 11 11 11 10 9 7 6 6 7
10 13 7 8 10 20 22 15 6 5 7 7 3 6 6 6 7 8 8 10 11 11 10 11 12 16 16 17 18 17 15 15 14 14 14 15 14 13 14 13 12 12 9 11 11 11 12 7 6 7 8 9 11 4 7 9 10 10 12 12 11 10 11 10 10 11 14 12 12 12 13 11 11 12 12 13 14 14 11 9 9 7 8 9 8 6 7
10 12 10 14 15 16 12 11 9 3 5 7 8 6 4 6 7 6 9 10 11 11 12 12 14 15 16 16 16 16 16 15 14 14 14 15 16 14 11 13 13 12 12 11 12 12 12 12 7 8 9 11 11 7 6 8 10 11 12 13 14 14 14 11 10 11 12 13 14 12 13 13 14 13 13 14 16 17 18 15 14 13 12 7 9 11 11
11 14 13 13 10 11 11 6 3 5 7 8 6 7 9 9 9 9 9 9 13 14 15 14 14 15 15 15 15 17 17 17 15 15 16 15 15 15 15 13 12 13 13 14 14 14 15 12 9 9 12 12 10 11 11 11 13 14 13 13 11 12 13 12 13 12 12 13 13 12 12 11 11 12 16 12 12 12 12 13 16 17 15 13 12 11 11
11 10 11 2 9 13 15 13 3 8 10 8 6 5 7 9 10 10 11 12 12 12 13 14 12 13 15 16 15 16 17 18 18 18 18 17 17 16 14 13 14 15 15 15 15 16 15 13 11 11 12 12 10 10 8 10 12 14 13 12 12 12 12 12 12 13 12 12 12 12 12 12 11 8 7 12 10 12 13 13 13 12 14 14 14 12 11
13 13 8 4 5 9 10 10 5 7 6 7 10 10 9 7 5 7 10 13 13 11 12 11 13 14 15 18 17 16 14 17 17 18 19 19 18 18 18 18 18 17 16 16 15 16 16 14 13 13 13 11 9 9 10 11 13 14 13 12 11 11 11 12 13 14 13 13 12 12 12 13 12 12 10 10 13 10 11 16 15 17 15 15 20 17 13
17 14 6 3 3 8 11 8 10 8 5 3 8 12 12 10 10 10 10 10 11 13 13 13 11 13 15 15 14 15 17 17 17 16 17 18 18 17 16 16 16 18 17 16 14 15 13 13 13 13 13 12 10 10 10 11 12 12 13 13 13 13 13 12 11 12 10 11 11 12 11 11 12 13 13 13 10 13 16 16 18 18 18 20 20 19 18
13 0 2 3 6 10 8 7 5 8 3 6 6 9 11 14 14 13 13 13 12 12 13 17 16 12 11 14 15 16 18 19 18 18 19 21 20 19 16 17 17 16 15 15 16 17 18 18 17 14 12 12 9 8 10 11 12 14 14 14 14 12 11 11 11 12 10 11 11 11 12 13 12 12 13 14 14 13 13 18 19 18 19 20 20 19 20
1 1 1 3 5 10 7 4 7 4 5 8 8 9 10 10 14 15 14 13 13 14 14 14 16 17 13 12 14 17 18 19 20 18 16 15 18 16 17 16 16 14 16 16 17 19 19 20 18 17 16 14 10 10 11 12 14 16 16 17 16 12 12 13 13 13 12 12 12 12 11 12 12 12 11 11 13 15 15 14 14 15 18 19 19 18 18
3 2 4 8 10 10 2 2 7 11 13 13 11 10 11 11 13 12 14 14 13 12 12 14 14 16 15 13 11 12 15 19 22 18 15 16 18 16 14 15 16 20 19 20 18 20 19 18 17 17 18 17 12 9 11 13 15 15 15 14 11 11 15 13 12 13 12 12 13 12 12 13 13 12 12 12 13 15 16 16 16 15 12 12 17 19 15
4 3 3 2 7 7 11 11 9 11 12 10 12 13 11 9 10 12 16 18 15 12 12 9 9 13 16 14 11 15 15 15 17 20 18 17 16 16 17 18 20 19 19 20 21 19 19 16 18 18 19 16 8 8 11 13 15 16 15 14 12 10 11 15 12 12 13 14 14 14 14 13 12 11 11 12 13 13 12 13 14 13 11 9 9 16 21
4 3 2 1 5 10 11 12 11 10 10 10 9 10 7 10 14 13 13 13 13 15 17 16 10 9 10 13 12 13 14 15 17 20 20 19 17 16 17 18 18 21 20 21 20 19 17 16 16 17 17 14 6 9 12 14 15 14 14 13 12 11 12 13 13 12 12 12 12 13 12 12 12 11 11 11 10 11 11 12 12 11 12 12 11 10 9
5 4 4 5 7 9 10 10 11 12 11 10 11 12 9 9 14 16 14 15 13 15 17 16 14 14 10 12 13 12 13 17 16 18 17 19 16 17 16 17 18 18 17 17 16 14 14 15 16 18 17 12 7 10 12 13 13 15 16 16 15 14 13 14 13 13 13 13 13 15 13 13 12 12 12 12 12 12 12 12 13 14 13 11 10 11 11
6 5 6 9 8 5 7 12 13 13 11 8 9 13 15 10 11 15 16 16 15 15 15 15 15 18 15 13 11 13 13 14 16 17 18 16 16 15 17 15 15 16 17 18 19 17 17 16 16 15 14 11 7 10 11 12 11 11 10 10 10 11 14 17 15 13 12 13 13 14 13 13 12 13 13 13 13 12 12 12 12 11 10 10 10 10 8
12 9 5 3 3 8 11 7 8 12 13 12 12 13 12 13 16 19 20 19 18 16 16 19 19 19 17 13 13 15 14 16 17 16 15 18 16 14 11 14 16 20 20 22 18 16 15 18 17 17 15 10 6 8 10 11 11 10 11 11 10 10 14 21 13 14 12 13 13 13 13 13 12 12 12 13 14 14 14 14 13 12 11 11 10 8 7
9 14 11 9 13 13 13 11 4 12 15 17 16 12 12 11 12 14 16 16 17 18 15 16 16 17 15 17 16 16 15 16 17 18 15 14 13 13 13 16 16 18 19 20 16 19 16 16 15 15 14 11 8 10 11 12 12 11 10 10 9 10 12 16 14 14 13 13 13 13 13 12 12 12 12 12 12 12 12 13 12 11 10 9 9 7 7
4 4 7 8 7 11 14 21 18 15 15 16 15 14 14 14 13 15 15 15 15 17 16 15 15 14 16 15 18 15 17 16 19 17 16 14 16 14 17 17 16 19 19 16 17 15 14 16 18 19 18 14 11 11 12 12 11 9 9 10 11 12 13 12 15 13 13 13 12 14 14 13 13 13 12 12 12 12 13 13 12 11 11 9 8 7 11
6 8 9 10 9 11 12 14 16 16 16 19 22 20 15 13 13 16 17 17 18 17 16 16 16 15 15 15 16 16 15 16 19 17 20 15 17 17 16 17 18 16 20 21 17 18 18 19 19 18 17 14 12 11 11 12 11 9 11 12 12 12 12 12 13 14 14 13 13 14 14 14 12 11 13 14 12 12 12 11 12 12 11 11 9 8 6
6 8 7 8 9 10 13 14 14 16 16 17 19 20 21 18 17 18 19 19 15 16 16 16 16 15 13 14 15 13 16 17 16 18 16 16 17 15 16 18 18 22 22 22 17 16 15 12 13 14 12 9 7 8 9 8 8 8 10 11 11 10 10 11 11 11 11 12 13 12 12 13 14 13 12 11 11 12 12 12 12 11 11 10 9 8 4
4 9 9 10 10 11 13 14 14 15 17 18 18 19 22 21 18 17 16 16 15 14 14 15 15 16 16 14 13 15 14 14 15 14 16 15 14 14 16 17 20 19 17 16 10 6 13 10 12 12 9 5 5 5 6 10 8 8 10 10 11 11 12 12 11 12 11 11 11 11 12 12 11 11 10 11 11 11 11 11 10 10 10 10 8 8 8
8 9 11 11 12 12 14 14 14 16 19 23 21 17 18 20 19 18 17 16 16 16 17 16 15 15 14 15 14 14 15 15 16 18 17 17 15 16 17 15 13 8 8 10 13 11 10 11 12 7 3 1 0 3 8 11 12 10 9 10 11 11 12 12 12 11 11 10 10 12 12 12 15 14 11 10 10 11 10 10 10 10 10 9 7 7 7
12 9 9 10 11 12 14 14 13 14 15 20 22 20 17 17 19 18 18 17 15 16 16 15 16 15 13 15 15 15 15 16 16 19 17 14 14 13 13 14 11 8 8 11 12 10 9 8 5 4 2 3 6 7 10 14 14 10 10 10 11 11 12 12 12 11 11 11 12 12 11 11 12 12 13 13 11 10 9 11 11 9 9 8 8 8 7
12 12 12 12 12 12 13 14 13 14 14 13 16 20 18 17 17 17 17 17 16 14 15 15 14 12 14 15 16 14 14 18 18 14 10 11 11 12 12 11 6 9 11 12 9 7 8 9 5 4 4 5 6 7 8 13 13 10 10 11 11 11 11 11 12 12 12 12 13 12 11 11 11 11 10 10 9 10 9 9 10 9 9 8 8 8 7
13 14 13 12 13 12 13 14 15 14 14 15 15 16 16 17 17 17 17 17 16 15 15 13 13 14 15 15 15 14 15 15 14 11 9 8 8 8 8 9 9 9 10 8 7 7 8 7 6 5 5 5 6 8 9 12 11 9 10 10 11 11 11 11 11 12 13 13 12 12 11 11 11 12 10 10 10 10 9 8 7 7 8 11 10 7 6
14 14 14 14 13 13 14 13 14 15 14 14 15 16 16 15 16 16 16 16 16 15 14 14 16 16 15 15 15 13 13 13 13 13 7 5 6 6 7 8 10 8 12 10 9 8 7 7 7 6 6 7 7 11 11 9 9 9 9 9 10 10 11 11 11 10 9 10 10 9 9 12 15 11 10 10 10 9 7 7 7 6 5 6 9 8 7
14 15 15 14 14 14 14 14 15 16 17 15 14 13 14 14 14 14 15 15 15 14 14 14 13 13 13 13 14 12 10 10 11 12 9 5 6 6 7 7 7 8 13 8 8 7 8 7 7 7 9 10 10 14 14 10 9 10 10 10 10 10 10 10 10 10 10 8 9 9 8 8 7 8 11 8 7 7 8 7 7 6 6 5 6 8 6
15 14 13 14 15 14 14 14 15 15 15 14 13 14 14 13 13 14 14 15 14 13 13 12 10 9 10 10 12 8 6 8 8 8 7 6 6 8 11 7 6 8 12 7 7 7 8 8 8 12 17 18 18 17 11 10 10 10 11 11 10 10 11 10 10 11 9 10 8 6 8 10 9 7 7 8 8 7 8 8 7 7 6 5 5 6 7
15 14 14 14 15 14 13 13 14 15 15 15 15 13 13 13 13 13 14 14 13 13 12 9 8 9 9 8 8 7 4 6 6 7 7 6 6 7 9 8 8 6 8 10 8 8 8 9 14 18 17 19 19 17 11 10 11 11 11 11 11 10 10 11 10 10 11 11 11 10 8 9 9 9 9 8 8 8 8 8 7 6 7 7 7 6 5
14 13 13 14 14 14 14 15 15 14 14 14 13 13 11 11 12 12 12 12 10 11 7 9 10 10 10 9 8 8 3 5 6 7 6 5 4 4 6 7 7 7 12 12 9 10 11 17 19 17 18 18 17 13 11 11 10 10 10 10 9 9 8 7 8 9 10 10 9 8 9 8 9 8 8 8 7 8 7 7 6 6 5 6 5 5 5
13 13 13 13 14 15 16 15 14 13 13 12 11 11 11 11 11 10 10 9 10 9 8 9 9 9 9 9 6 4 4 5 6 7 7 6 6 6 7 10 11 13 12 10 9 9 10 13 16 19 19 18 16 11 10 10 11 10 11 11 10 8 8 8 9 7 8 7 8 9 9 9 8 9 8 9 9 8 8 7 7 6 5 4 5 5 5
13 14 15 16 19 18 16 13 11 9 10 10 10 10 10 10 11 11 9 10 10 8 8 7 7 8 9 9 7 6 5 4 5 7 7 6 5 6 7 7 9 13 14 13 15 15 20 20 20 19 18 16 12 10 11 10 10 10 9 9 9 7 8 8 7 7 7 9 9 9 12 12 10 9 8 9 9 7 6 7 7 6 5 5 5 5 5
14 16 16 15 14 14 12 10 9 9 8 8 10 9 9 10 10 8 9 9 9 7 7 7 8 7 8 9 9 7 7 7 6 3 4 5 5 5 6 8 12 12 11 10 10 10 15 19 18 19 18 15 11 8 7 8 9 10 9 8 8 8 8 8 9 8 9 8 8 9 9 10 12 12 11 8 6 6 5 6 6 6 6 5 5 4 4
12 11 10 9 9 8 8 8 7 8 8 8 8 7 7 8 7 7 7 7 6 7 5 5 6 6 6 6 7 7 7 6 6 5 5 6 5 6 6 7 8 12 12 9 9 9 12 16 16 15 13 11 10 11 10 9 8 8 7 8 8 7 8 9 8 10 9 9 10 9 10 11 10 9 7 8 8 6 5 5 5 5 6 5 5 5 5
10 9 8 9 8 7 9 8 8 8 7 7 7 7 7 7 7 7 6 7 5 6 6 5 5 6 6 6 6 6 6 6 6 6 6 6 7 8 8 7 9 9 10 10 9 9 8 9 9 11 12 10 9 8 8 8 8 8 7 7 7 6 7 6 6 7 7 6 8 9 8 7 8 8 9 9 7 6 5 5 5 5 5 5 5 5 5
11 10 9 7 7 8 7 7 7 6 6 6 5 5 6 6 5 6 6 8 5 5 5 5 5 6 6 6 6 6 5 6 5 5 6 6 6 7 8 8 8 9 9 9 9 9 9 9 10 12 11 9 8 8 8 11 9 8 8 8 8 7 7 6 6 10 8 7 6 8 7 6 7 7 6 5 5 5 5 5 5 5 5 4 4 3 2
Wind_Direction
225 233 237 241 246 244 246 246 250 251 248 240 240 241 241 240 239 250 244 241 245 244 240 246 253 259 264 272 282 279 279 282 264 233 242 245 250 256 235 229 241 243 244 240 238 235 232 231 226 223 221 221 219 222 221 206 195 201 191 186 189 191 192 196 198 192 181 176 175 167 166 163 166 168 169 168 165 165 167 166 166 165 157 151 149 145 141
230 229 232 236 240 246 248 245 244 245 249 251 246 248 246 243 247 253 260 256 252 247 246 243 248 255 264 275 281 285 286 276 271 254 235 253 264 270 257 237 239 240 238 238 237 236 233 227 226 223 220 220 216 213 213 201 197 199 173 190 188 191 195 199 191 179 175 171 170 166 166 171 170 166 164 164 163 165 167 164 158 153 149 146 146 145 141
241 233 234 233 236 237 245 245 246 244 247 251 248 247 250 257 261 257 253 252 257 256 257 258 260 263 268 273 274 274 274 276 273 271 264 262 268 275 270 236 241 242 242 240 241 237 234 230 226 223 219 218 217 218 211 196 199 189 182 187 190 192 199 191 178 171 170 173 166 172 173 166 165 163 164 162 163 163 160 156 153 150 145 145 144 147 148
243 230 238 231 233 233 236 241 244 247 245 245 243 241 237 238 246 250 255 256 255 252 249 253 257 263 265 264 262 263 264 266 273 281 279 278 274 269 268 251 240 244 246 246 240 233 233 231 226 222 223 221 212 215 204 201 196 175 182 187 191 195 191 175 173 173 174 167 169 171 166 169 166 165 159 160 162 160 153 150 148 144 150 152 143 137 137
244 233 235 233 235 239 236 230 237 240 238 236 240 242 244 241 243 248 248 250 243 245 240 250 250 253 254 253 254 258 259 264 275 280 279 275 267 262 260 259 253 248 245 236 230 233 236 234 227 223 219 214 211 213 201 205 165 174 185 188 189 187 180 176 176 174 169 170 171 169 173 167 164 162 162 162 161 158 162 157 149 156 154 144 144 141 146
257 232 243 239 240 227 224 205 219 220 231 231 237 239 238 238 230 236 234 246 251 255 248 240 243 245 248 249 251 250 260 276 280 279 275 266 262 255 252 256 257 254 247 243 235 233 234 234 229 230 217 210 216 211 197 163 171 181 179 186 184 184 177 179 177 175 172 171 174 173 167 165 164 166 166 171 167 162 154 155 156 154 148 145 152 153 159
264 257 263 255 235 247 226 225 225 225 232 236 240 242 240 242 242 246 252 254 251 248 247 246 245 246 252 256 262 270 274 265 262 270 274 277 268 265 266 261 257 252 239 235 241 245 244 237 236 231 224 214 214 169 164 174 178 173 183 181 183 180 180 180 176 175 175 174 174 170 169 167 168 171 171 165 164 166 161 159 158 161 159 156 161 163 166
273 244 232 253 248 81 309 202 215 218 233 235 245 255 254 255 250 250 255 257 259 257 255 253 254 257 261 269 278 286 285 292 294 290 289 291 294 291 282 273 271 263 243 231 229 236 237 237 237 217 221 209 185 194 170 174 176 179 178 181 183 177 182 183 182 179 175 176 173 170 170 170 171 173 173 170 167 163 160 162 162 159 162 158 161 167 167
251 245 243 253 274 271 189 109 215 197 215 208 216 241 247 264 319 329 310 304 305 303 297 297 298 295 298 295 291 315 358 354 355 349 331 320 313 309 303 290 279 269 253 236 237 239 245 235 227 222 218 183 184 164 170 178 172 175 173 181 185 186 188 185 184 180 178 175 174 173 173 172 177 175 172 169 166 162 162 166 166 171 170 169 161 158 151
220 253 257 260 256 254 253 226 211 215 215 214 216 217 235 37 358 356 354 346 1 8 1 358 342 326 329 296 297 11 347 351 342 339 340 342 338 336 329 325 313 299 285 280 269 255 253 254 238 227 181 173 168 170 175 169 167 177 181 192 189 187 191 187 183 179 178 175 174 173 174 180 179 175 170 167 169 169 168 166 171 172 166 142 133 138 146
225 234 239 240 250 256 36 357 354 330 306 250 248 251 246 25 353 333 353 336 354 18 19 359 354 13 21 342 332 326 342 330 333 329 328 336 338 337 341 341 335 325 317 298 278 270 256 254 258 183 168 161 162 178 175 175 177 177 194 196 188 192 193 183 178 177 176 176 176 176 179 181 175 172 173 173 166 166 169 167 167 166 165 162 160 136 145
274 290 280 279 292 4 351 346 346 326 322 277 264 255 168 354 343 325 331 326 353 4 359 354 355 13 343 328 317 317 314 313 305 306 323 332 336 337 337 344 342 327 329 341 340 346 343 329 8 15 140 166 178 180 182 169 180 194 198 199 196 184 165 169 173 172 176 178 178 178 180 175 175 174 165 160 169 169 168 167 165 164 159 159 150 141 157
269 267 267 271 273 91 17 1 346 342 322 53 215 242 9 326 321 321 316 304 343 342 334 344 335 323 289 277 289 299 304 313 318 320 323 313 313 319 329 331 334 346 345 4 354 349 348 350 22 51 39 284 221 199 177 181 199 207 199 166 153 165 163 164 172 176 176 180 179 179 174 170 163 160 166 167 162 167 163 161 159 157 158 154 154 152 152
292 295 283 273 290 78 11 358 11 348 349 288 354 333 290 295 304 297 299 317 329 331 333 332 324 312 308 296 290 298 305 304 301 306 312 320 323 325 315 322 343 340 340 341 348 360 359 9 25 40 65 81 19 348 292 228 242 23 87 140 137 146 162 170 172 175 177 174 170 167 163 157 163 166 162 159 164 163 161 159 160 158 157 157 153 141 147
293 272 268 267 254 71 25 344 351 52 61 290 301 311 304 281 282 288 321 339 335 351 334 329 322 316 313 312 312 310 311 312 314 316 318 320 322 321 327 329 330 337 332 325 324 316 307 150 134 137 124 171 174 172 212 243 6 101 75 125 145 153 158 167 174 174 172 168 167 166 168 167 163 162 158 158 163 165 162 162 160 158 159 157 139 142 149
259 268 260 246 1 322 342 23 330 332 321 289 301 281 300 311 318 347 348 333 326 333 318 321 320 313 312 310 314 315 311 310 309 306 304 304 307 310 306 295 295 302 308 301 295 274 243 209 178 165 168 190 201 204 229 177 145 144 155 140 149 159 164 167 168 171 169 166 164 166 167 164 165 160 162 161 160 165 167 162 158 155 159 155 143 147 152
303 255 289 299 304 313 327 50 304 306 313 345 305 307 300 321 334 348 330 322 328 316 311 310 309 310 311 307 310 312 310 309 311 311 311 311 309 308 310 310 311 308 301 297 296 281 249 226 209 194 189 193 199 216 219 160 165 154 158 161 159 172 173 172 172 166 161 167 167 167 169 167 166 165 160 159 160 168 164 166 161 156 161 164 157 152 150
304 288 291 298 307 319 321 321 324 319 334 40 1 356 349 343 327 326 323 318 317 316 312 311 312 308 312 314 313 309 308 307 307 308 310 311 311 307 306 308 309 309 307 298 286 285 281 245 233 214 211 198 203 226 175 172 170 167 159 167 175 173 172 171 172 163 164 167 167 169 171 175 175 170 164 163 162 161 165 166 164 159 155 155 150 155 159
318 284 316 297 331 317 310 315 348 48 34 350 14 26 343 328 320 316 313 310 308 307 307 303 303 308 310 308 305 306 306 304 304 308 308 307 308 312 312 308 309 307 306 300 293 285 283 270 231 240 226 226 230 225 171 177 169 166 166 167 171 169 175 173 168 173 174 174 171 171 174 175 173 171 168 164 162 165 165 161 162 153 148 152 156 158 158
268 283 304 303 294 276 285 311 332 38 355 350 340 327 314 310 305 311 306 306 303 309 308 305 302 302 302 301 303 303 304 304 306 305 304 304 306 304 302 303 304 300 294 290 286 283 277 275 249 237 233 234 230 211 181 170 169 167 174 178 179 178 174 170 175 179 184 176 173 175 180 173 166 174 178 173 169 173 175 169 159 163 161 158 163 163 162
289 287 289 281 299 301 290 301 68 352 344 323 322 319 319 318 321 324 325 322 314 315 308 312 310 303 300 301 304 306 306 307 306 307 307 305 303 305 308 305 300 296 294 289 282 278 273 269 254 234 237 236 230 211 194 175 168 174 184 185 179 175 174 171 178 181 179 178 183 178 177 177 190 190 181 178 171 168 176 169 168 164 166 173 171 168 162
276 272 283 37 322 302 307 308 45 345 314 315 309 319 318 330 332 337 329 318 311 305 307 312 314 309 308 310 314 310 309 307 311 313 313 311 313 310 308 308 304 297 290 285 282 279 275 272 262 250 245 238 226 214 193 178 175 181 181 177 181 182 180 182 179 178 182 181 181 177 175 173 172 179 195 178 171 165 167 176 174 177 170 168 166 159 157
271 272 280 135 242 273 261 277 330 321 306 330 335 325 322 319 323 326 323 315 312 307 307 313 313 312 310 308 310 308 309 310 313 314 316 316 314 311 314 314 309 303 299 294 287 279 276 276 269 262 256 248 227 205 191 185 183 187 175 179 187 186 180 189 186 182 179 179 181 179 175 170 170 167 161 172 178 171 164 165 169 163 163 157 153 154 148
267 277 281 165 200 258 286 310 313 301 315 38 328 319 319 324 323 324 316 307 309 310 307 305 305 307 304 303 315 315 311 308 313 315 313 308 307 308 309 305 304 307 308 308 304 301 297 288 278 271 264 255 235 208 192 188 186 184 183 182 189 193 192 188 174 179 180 178 174 175 174 172 173 169 163 152 159 161 158 159 156 155 153 153 151 148 146
272 184 165 240 261 270 278 279 279 285 307 38 332 311 317 321 322 323 317 314 313 315 313 309 309 305 308 315 317 315 312 309 309 311 309 306 303 303 301 303 303 305 306 311 309 307 303 301 298 291 275 263 241 208 194 188 185 189 191 193 196 193 185 175 174 176 173 175 177 175 173 172 177 176 167 161 150 148 153 152 148 146 147 147 147 149 149
99 63 274 253 256 264 271 325 288 262 327 336 321 307 318 320 314 316 310 310 309 310 305 300 305 312 315 314 313 313 310 304 308 310 305 300 300 300 301 301 303 304 302 298 293 291 289 290 292 290 281 267 242 206 196 189 192 195 197 199 200 189 181 177 172 176 176 175 175 178 177 176 177 172 168 159 151 147 144 145 144 144 147 148 147 145 149
83 25 11 320 287 277 135 153 287 321 321 317 308 311 317 314 312 311 305 300 291 289 293 300 303 302 304 303 305 301 302 305 307 301 295 293 291 294 300 308 311 306 302 297 290 286 286 287 287 286 281 272 251 205 194 190 193 200 201 198 195 186 176 171 176 176 174 174 176 175 175 176 175 171 164 162 155 152 151 149 145 142 146 149 154 151 152
91 37 46 215 269 304 302 313 314 303 298 297 312 315 315 314 309 307 303 305 306 303 297 287 294 298 299 302 309 307 305 300 296 297 296 292 294 301 303 304 301 299 295 290 287 286 287 286 285 282 279 278 262 192 195 191 195 199 199 195 189 180 178 177 173 174 174 178 177 177 175 174 171 165 159 156 156 153 147 142 141 139 133 135 138 151 150
56 47 26 322 294 285 289 293 295 287 288 304 302 294 312 317 307 301 294 294 300 305 301 303 297 278 284 295 302 298 296 294 294 294 294 296 298 298 300 300 296 293 287 285 282 281 280 278 276 279 278 278 240 197 196 192 196 198 196 191 187 184 180 182 180 174 171 171 174 173 166 162 160 157 157 153 149 145 142 139 133 128 128 127 122 106 99
352 340 335 289 268 279 290 292 297 303 303 303 308 306 311 312 303 300 297 297 302 300 297 300 301 296 292 288 290 289 290 291 289 289 287 287 290 292 291 288 287 281 277 274 276 280 283 283 283 283 284 281 215 207 197 197 201 202 198 193 190 185 185 177 172 167 166 171 169 160 159 160 161 157 152 151 149 145 139 135 136 134 136 131 128 132 133
318 303 285 278 272 278 281 296 300 295 297 302 309 306 305 302 288 292 294 299 300 295 296 297 297 298 299 293 288 290 286 284 285 282 282 280 282 282 282 280 282 288 289 288 288 287 283 279 276 275 283 277 214 207 195 199 203 202 201 194 191 174 166 167 165 166 165 163 161 160 160 159 160 157 153 148 143 138 135 134 133 133 130 133 137 140 135
321 315 242 213 337 311 298 290 291 296 302 308 305 300 304 311 308 304 303 303 300 299 301 301 299 300 299 299 295 293 292 289 284 282 282 284 278 275 285 297 297 294 292 291 292 296 300 299 293 292 300 291 238 211 202 201 198 192 197 188 179 170 166 161 160 162 161 162 157 156 158 156 156 153 148 147 145 141 141 141 143 143 144 142 145 142 141
349 339 339 337 331 321 311 299 284 301 307 306 300 296 294 289 286 287 287 291 296 296 294 290 292 293 296 299 300 297 294 292 287 285 283 284 291 297 299 295 285 283 282 284 285 283 276 279 283 290 286 274 231 214 208 205 200 198 193 176 168 159 160 163 156 156 155 157 158 156 153 150 148 146 146 140 136 138 139 141 140 141 140 140 137 141 147
328 279 277 299 295 299 304 305 309 307 300 295 289 292 293 295 292 289 289 291 286 286 288 290 292 293 296 296 297 296 298 299 300 300 297 295 296 295 294 290 281 277 278 283 292 295 295 288 285 283 281 273 243 220 211 205 201 193 172 162 157 157 159 158 154 153 155 156 153 147 145 143 146 146 144 143 144 144 144 144 143 142 137 133 137 143 162
300 288 287 285 287 280 280 280 288 292 295 295 299 298 293 288 290 290 293 292 290 291 293 293 293 293 292 292 293 293 292 288 292 293 294 295 297 297 293 287 290 295 294 290 286 285 280 277 275 277 279 271 246 223 211 201 192 177 167 160 158 158 157 153 155 157 155 151 145 145 145 146 144 143 143 144 145 143 140 138 137 137 134 136 140 136 203
295 290 283 279 273 272 273 274 274 276 279 281 284 289 294 296 297 295 295 292 292 292 292 292 292 290 287 286 289 290 291 289 285 287 290 294 296 291 294 301 301 296 291 288 284 278 284 289 292 285 278 263 238 220 203 193 170 159 149 146 146 144 143 142 142 139 141 142 145 146 147 141 137 140 141 138 137 137 137 135 137 135 134 136 141 137 55
265 278 286 283 279 275 274 274 276 280 281 281 283 289 290 292 291 290 289 288 290 290 290 291 292 291 290 288 284 284 282 285 289 291 292 292 294 302 303 300 294 289 293 293 304 40 309 293 288 282 268 241 234 199 168 152 144 137 134 136 136 138 138 138 138 137 139 138 137 134 129 131 131 130 133 134 134 131 130 129 128 128 130 135 131 124 114
295 284 284 283 283 281 276 275 279 280 282 282 280 278 283 290 293 292 290 290 291 291 292 290 288 288 289 290 288 288 289 288 285 287 290 299 307 303 298 292 291 302 291 284 310 315 298 295 287 282 292 296 111 121 130 127 124 128 128 130 131 132 133 132 132 132 132 130 128 131 135 135 123 118 129 125 123 125 126 125 127 131 133 132 129 127 128
299 291 276 278 279 279 282 282 279 276 278 284 289 290 287 286 288 291 290 291 291 291 290 290 291 291 291 297 298 296 292 291 296 299 302 305 304 297 283 288 280 284 285 298 302 300 304 302 305 319 357 50 92 102 112 113 114 114 118 122 125 127 128 131 131 129 127 129 129 128 125 127 125 123 113 109 120 120 121 125 128 130 133 134 135 139 138
298 298 295 295 290 289 287 287 286 285 284 282 288 291 295 293 291 291 292 292 293 292 292 293 295 298 301 299 298 296 300 304 304 305 310 306 297 295 297 299 308 307 304 299 301 304 314 327 344 17 37 72 92 104 106 108 108 113 118 121 122 122 124 124 125 126 128 128 126 124 124 124 122 119 119 119 117 120 121 123 124 128 125 128 131 126 127
298 300 300 297 294 295 293 296 296 292 291 290 286 283 286 288 291 293 295 297 299 299 297 299 303 301 299 299 300 306 313 315 318 315 310 311 308 316 313 309 325 323 313 320 327 333 355 11 15 35 48 66 80 98 102 100 103 109 113 116 120 120 121 124 128 130 134 133 132 132 130 126 121 118 118 118 118 113 114 116 115 120 126 122 123 130 128
301 300 297 298 298 299 298 296 294 296 291 287 285 285 286 288 294 295 297 298 299 302 305 306 303 305 309 311 309 310 315 320 325 321 325 322 316 315 322 320 331 326 341 348 354 4 8 22 25 39 52 72 69 80 87 92 94 97 99 98 101 107 112 114 117 117 113 112 96 75 112 109 98 114 116 116 119 118 108 109 110 113 116 122 114 113 133
305 304 305 304 302 302 300 300 299 295 294 293 291 293 298 300 297 297 299 303 305 306 305 301 302 310 314 316 317 315 322 325 327 325 322 320 325 323 328 308 330 348 4 11 10 25 24 25 37 42 59 67 75 71 72 77 84 88 91 94 98 102 106 107 106 106 102 89 101 99 92 101 89 104 116 107 95 114 116 112 117 123 127 122 124 111 121
305 304 303 303 302 301 300 298 296 296 298 301 303 303 303 303 306 307 308 306 305 303 302 303 310 319 320 323 321 322 331 332 332 331 327 325 341 2 357 347 350 8 17 24 19 35 40 47 53 67 68 72 72 72 75 76 80 83 86 89 94 95 100 96 102 102 94 106 89 81 108 115 106 88 101 113 115 113 121 120 123 124 122 112 122 109 94
303 303 302 300 299 300 299 298 300 302 300 301 305 306 310 311 311 310 307 304 304 309 306 312 331 330 326 324 321 316 325 333 327 337 345 349 352 356 348 350 7 17 27 44 49 51 54 63 72 73 76 75 76 77 79 80 82 86 90 93 94 96 96 101 101 101 103 106 109 110 107 111 114 115 113 109 113 117 121 125 124 128 128 124 125 133 141
300 300 300 300 300 299 295 295 295 294 299 307 309 310 311 312 313 311 308 305 317 321 343 359 342 335 331 324 319 318 327 345 354 358 6 356 5 330 348 18 15 28 39 44 59 58 63 64 67 69 71 73 75 76 79 80 82 83 84 84 86 89 83 73 88 99 103 107 108 105 108 110 111 106 110 117 116 116 115 114 116 112 122 130 135 139 144
301 303 302 300 297 296 297 295 295 300 307 312 312 313 318 319 317 316 312 331 339 342 13 357 345 340 336 332 328 328 343 0 15 13 3 359 3 15 35 44 48 46 47 47 53 58 65 61 62 63 65 68 72 75 76 78 79 83 84 88 85 82 74 76 77 76 90 91 99 98 98 100 102 89 100 103 105 111 122 122 122 124 121 124 126 130 131
307 305 302 301 299 295 294 299 304 309 317 314 311 312 314 317 318 319 340 350 336 7 3 353 352 351 350 357 4 21 11 357 28 15 2 358 7 26 30 40 56 66 63 59 58 56 60 65 66 67 67 68 69 74 72 77 78 82 83 85 79 69 76 81 81 86 93 99 98 81 70 70 89 100 108 98 81 114 123 125 129 128 133 138 148 147 147
306 301 299 295 292 295 304 309 317 320 314 313 316 313 317 321 325 337 350 344 346 13 4 357 358 4 8 17 28 31 35 31 49 49 345 359 12 27 38 49 53 58 62 63 62 60 58 64 66 68 67 67 66 61 56 65 73 79 71 67 64 77 77 66 78 83 85 87 96 104 106 107 93 84 86 107 116 117 121 124 132 140 148 144 139 152 172
305 305 305 303 302 311 321 322 318 313 314 318 316 317 325 333 342 348 346 345 359 15 6 7 15 15 20 22 29 33 34 39 40 34 27 23 25 33 38 47 58 61 61 64 63 59 55 57 61 62 66 69 68 68 64 58 61 68 75 81 84 81 84 86 84 87 93 97 87 96 98 92 89 103 109 107 99 114 122 126 130 136 135 142 160 175 182
311 303 292 291 296 313 321 318 309 314 312 318 317 327 337 347 345 345 347 1 354 14 17 18 27 25 26 31 34 35 38 37 37 33 37 43 50 51 51 52 57 59 62 62 63 60 56 55 58 62 64 64 65 64 65 66 72 67 65 67 70 64 76 84 88 86 80 93 98 94 103 103 101 109 102 109 124 127 127 131 138 151 159 175 180 186 187
290 285 277 300 325 322 316 319 317 315 314 323 315 334 347 349 344 353 1 16 8 18 13 4 24 24 31 35 40 42 41 43 47 52 54 50 45 58 47 42 54 53 57 62 61 57 56 57 58 60 64 65 69 73 74 76 74 74 72 73 75 63 75 79 81 79 83 95 91 91 103 115 119 120 125 127 127 133 141 152 157 169 176 187 187 182 176